Miscellaneous Local Product
Issued by NWS North Platte, NE

Home | Current Version | Previous Version | Text Only | Print | Product List | Glossary On
Versions: 1 2 3 4 5 6 7 8 9 10 11 12 13 14 15 16 17 18 19 20 21 22 23 24 25 26 27 28 29 30 31 32 33 34 35 36 37 38 39 40 41 42 43 44 45 46 47 48 49 50
000
AXUS43 KLBF 021510
MISLBF


WESTERN AND NORTH CENTRAL NEBRASKA HOURLY WEATHER ROUNDUP
NATIONAL WEATHER SERVICE NORTH PLATTE NE
1000 AM CDT TUE JUN 02 2015

***STATIONS NOT REPORTING VARIABLES SUCH AS SKY/WEATHER OR
PRESSURE ARE PROVIDED BY THE NEBRASKA DEPARTMENT OF
ROADS...RAWS...AND APRS NETWORKS...AND ARE NOT UNDER
NATIONAL WEATHER SERVICE QUALITY CONTROL***

...OBSERVATIONS IN AND NEAR THE EASTERN PANHANDLE OF NEBRASKA...

CITY           SKY/WX    TMP DP  RH WIND       PRES   REMARKS
PINE RIDGE     MOSUNNY   75  54  47 W13G20    29.85S
CHADRON        MOSUNNY   72  57  59 W17G23    29.85R
ALLIANCE       MOSUNNY   67  60  78 SW12      29.91F
SIDNEY         MOSUNNY   66  57  72 S18       29.94F
WHITECLAY        N/A     75  55  49 NW6         N/A
CRESCENT LAKE    N/A     70  57  62 SW13        N/A
BIG SPRINGS      N/A     69  61  76 SW13        N/A
$$

...OBSERVATIONS IN NORTH CENTRAL NEBRASKA...

CITY           SKY/WX    TMP DP  RH WIND       PRES   REMARKS
THEDFORD       SUNNY     72  58  61 S12       29.92R
AINSWORTH      MOSUNNY   72  60  66 S13       29.88R
O`NEILL        CLOUDY    65  60  82 S15G26    29.91S
ORD            CLOUDY    65  58  78 S15       29.93R
BROKEN BOW     CLOUDY    66  61  84 S9        29.92S
BROWNLEE         N/A     76  55  48 S18         N/A
SPRINGVIEW       N/A     71  61  71 W10         N/A
HALSEY           N/A     70  59  67 S6          N/A
NEWPORT          N/A     69  62  78 S20         N/A
SARGENT          N/A     63  60  88 S3          N/A
CHAMBERS         N/A     67  60  78 S6G18       N/A
EWING            N/A     64  59  84 S9G17       N/A
$$

...OBSERVATIONS IN SOUTHWEST NEBRASKA AND FAR NORTHEAST COLORADO...

CITY           SKY/WX    TMP DP  RH WIND       PRES   REMARKS
WRAY           FAIR      71  59  66 S9        29.94S
IMPERIAL       SUNNY     69  59  70 S12       29.90F
OGALLALA       SUNNY     70  59  68 SW3       29.91R
NORTH PLATTE   SUNNY     69  60  73 S8        29.92R
MCCOOK         MOSUNNY   72  64  76 S18       29.88S
LEXINGTON      PTSUNNY   65  63  92 S7        29.92R
PAXTON           N/A     67  61  80 S6          N/A
GOTHENBURG       N/A     69  60  73 SE6         N/A
CALLAWAY         N/A     70  66  86 S12         N/A
$$

...NORTH PLATTE AREA...

CITY           SKY/WX    TMP DP  RH WIND       PRES   REMARKS
AIRPORT        SUNNY     69  60  73 S8        29.92R
$$

...SOME WEATHER OBSERVATIONS FROM AROUND THE REGION...

CITY           SKY/WX    TMP DP  RH WIND       PRES   REMARKS
DENVER         MOSUNNY   65  54  67 W7        30.00S
LARAMIE        SUNNY     58  46  64 SE6       30.09F
CHEYENNE       SUNNY     63  50  62 SW3       30.01F
SCOTTSBLUFF    SUNNY     69  58  67 W6        29.92S
RAPID CITY     SUNNY     71  56  58 NW16      29.81F
PIERRE         MOSUNNY   72  62  71 SE15      29.74F
WINNER         FAIR      75  59  57 S16       29.82F
SIOUX FALLS    PTSUNNY   66  56  70 S17G30    29.93F
OMAHA          CLOUDY    64  54  69 SE20      30.01F
GRAND ISLAND   CLOUDY    61  56  83 S17G26    29.97R
KANSAS CITY    PTSUNNY   63  56  78 SE12      30.09F
WICHITA        PTSUNNY   74  61  63 SE15      30.00F
HAYS           CLOUDY    64  57  77 S13       29.95S
LIBERAL        SUNNY     73  63  68 S15       29.95F
GOODLAND       MOSUNNY   69  62  78 S22       29.92F
$$



USA.gov is the U.S. government's official web portal to all federal, state and local government web resources and services.